TimeCST,TemperatureF,Dew PointF,Humidity,Sea Level PressureIn,VisibilityMPH,Wind Direction,Wind SpeedMPH,Gust SpeedMPH,PrecipitationIn,Events,Conditions,WindDirDegrees,DateUTC
12:53 AM,39.0,30.0,70,30.32,10.0,Calm,Calm,-,N/A,,Clear,0,2012-12-05 06:53:00
1:53 AM,42.1,30.0,62,30.32,10.0,North,4.6,-,N/A,,Clear,360,2012-12-05 07:53:00
2:53 AM,37.0,30.0,76,30.31,10.0,Calm,Calm,-,N/A,,Clear,0,2012-12-05 08:53:00
3:53 AM,36.0,30.0,79,30.33,10.0,Calm,Calm,-,N/A,,Clear,0,2012-12-05 09:53:00
4:53 AM,36.0,30.0,79,30.33,10.0,NNW,3.5,-,N/A,,Clear,340,2012-12-05 10:53:00
5:53 AM,32.0,28.9,88,30.34,10.0,Calm,Calm,-,N/A,,Clear,0,2012-12-05 11:53:00
6:53 AM,39.0,30.0,70,30.35,10.0,Calm,Calm,-,N/A,,Clear,0,2012-12-05 12:53:00
8:53 AM,46.0,32.0,58,30.35,10.0,Calm,Calm,-,N/A,,Clear,0,2012-12-05 14:53:00
9:53 AM,50.0,34.0,54,30.35,10.0,SE,4.6,-,N/A,,Clear,140,2012-12-05 15:53:00
10:53 AM,52.0,32.0,47,30.32,-9999.0,SE,9.2,-,N/A,,Clear,130,2012-12-05 16:53:00
11:53 AM,55.0,30.0,38,30.30,-9999.0,ESE,11.5,-,0.04,,Clear,110,2012-12-05 17:53:00
12:53 PM,55.9,28.9,36,30.27,10.0,ESE,11.5,-,N/A,,Clear,120,2012-12-05 18:53:00
1:53 PM,57.0,30.0,36,30.23,10.0,East,11.5,-,N/A,,Clear,100,2012-12-05 19:53:00
2:53 PM,57.0,32.0,39,30.21,10.0,ESE,9.2,-,N/A,,Clear,120,2012-12-05 20:53:00
3:53 PM,55.9,30.9,39,30.20,10.0,ESE,9.2,-,N/A,,Clear,120,2012-12-05 21:53:00
4:53 PM,52.0,33.1,49,30.20,10.0,East,4.6,-,N/A,,Clear,100,2012-12-05 22:53:00
5:53 PM,51.8,33.8,50,30.19,10.0,ESE,3.5,-,N/A,,Clear,110,2012-12-05 23:53:00
6:53 PM,50.0,33.1,52,30.19,10.0,ESE,3.5,-,N/A,,Clear,110,2012-12-06 00:53:00
7:53 PM,45.0,34.0,65,30.16,10.0,ESE,4.6,-,N/A,,Clear,120,2012-12-06 01:53:00
8:53 PM,43.0,34.0,71,30.14,10.0,SE,5.8,-,N/A,,Clear,140,2012-12-06 02:53:00
9:53 PM,43.0,33.1,68,30.12,10.0,SE,6.9,-,N/A,,Clear,130,2012-12-06 03:53:00
10:53 PM,43.0,33.1,68,30.12,10.0,ESE,3.5,-,N/A,,Clear,120,2012-12-06 04:53:00
11:53 PM,41.0,32.0,70,30.11,10.0,Calm,Calm,-,N/A,,Clear,0,2012-12-06 05:53:00